TimeMDT,TemperatureF,Dew PointF,Humidity,Sea Level PressureIn,VisibilityMPH,Wind Direction,Wind SpeedMPH,Gust SpeedMPH,PrecipitationIn,Events,Conditions,WindDirDegrees,DateUTC
12:58 AM,30.4,28.2,92,30.13,10.0,SW,2.3,-,,,Clear,220,2013-10-21 06:58:00
1:58 AM,27.5,26.6,96,30.17,10.0,North,4.6,-,,,Clear,10,2013-10-21 07:58:00
2:58 AM,26.4,25.5,96,30.20,10.0,North,5.8,-,,,Clear,360,2013-10-21 08:58:00
3:58 AM,25.5,24.3,95,30.18,10.0,North,6.9,-,,,Clear,360,2013-10-21 09:58:00
4:59 AM,25.0,23.4,94,30.22,10.0,NNE,6.9,-,,,Clear,20,2013-10-21 10:59:00
5:58 AM,25.2,23.2,92,30.26,10.0,NNE,8.1,-,,,Partly Cloudy,20,2013-10-21 11:58:00
6:58 AM,22.6,20.8,93,30.27,10.0,North,8.1,-,,,Clear,360,2013-10-21 12:58:00
7:58 AM,25.7,23.4,91,30.29,10.0,North,9.2,-,,,Clear,360,2013-10-21 13:58:00
8:58 AM,30.9,27.5,87,30.26,10.0,North,5.8,-,,,Clear,10,2013-10-21 14:58:00
9:58 AM,38.3,29.3,70,30.24,10.0,North,3.5,-,,,Clear,10,2013-10-21 15:58:00
10:58 AM,43.0,26.1,51,30.22,10.0,Variable,2.3,-,,,Clear,0,2013-10-21 16:58:00
11:58 AM,46.9,22.3,38,30.20,10.0,Calm,Calm,-,,,Clear,0,2013-10-21 17:58:00
12:58 PM,49.5,22.3,34,30.16,10.0,Variable,2.3,-,,,Clear,0,2013-10-21 18:58:00
1:58 PM,50.5,19.9,30,30.14,10.0,Variable,6.9,-,,,Clear,0,2013-10-21 19:58:00
2:58 PM,52.5,17.6,25,30.14,10.0,NE,2.3,-,,,Clear,50,2013-10-21 20:58:00
3:58 PM,53.4,18.7,26,30.13,10.0,Variable,3.5,-,,,Clear,0,2013-10-21 21:58:00
4:58 PM,52.5,19.4,27,30.14,10.0,NW,5.8,-,,,Clear,310,2013-10-21 22:58:00
5:58 PM,48.9,24.6,39,30.17,10.0,WSW,4.6,-,,,Clear,250,2013-10-21 23:58:00
6:58 PM,43.3,24.1,47,30.23,10.0,North,3.5,-,,,Clear,360,2013-10-22 00:58:00
7:58 PM,36.1,26.2,67,30.26,10.0,North,10.4,-,,,Clear,360,2013-10-22 01:58:00
8:58 PM,33.6,27.0,77,30.27,10.0,North,10.4,-,,,Clear,10,2013-10-22 02:58:00
9:58 PM,31.1,25.5,80,30.25,10.0,North,10.4,-,6.26,,Clear,10,2013-10-22 03:58:00
10:58 PM,31.1,25.9,81,30.25,10.0,North,8.1,-,N/A,,Clear,10,2013-10-22 04:58:00
11:58 PM,28.9,25.0,85,30.24,10.0,North,9.2,-,N/A,,Clear,360,2013-10-22 05:58:00